Time,TemperatureF,DewpointF,PressureIn,WindDirection,WindDirectionDegrees,WindSpeedMPH,WindSpeedGustMPH,Humidity,HourlyPrecipIn,Conditions,Clouds,dailyrainin,SoftwareType,DateUTC
2013-04-01 00:03:00,36.5,36.0,29.74,SSW,203,0.0,0.0,96,0.06,,,0.00,weatherlink.com 1.10,2013-04-01 04:03:00,
2013-04-01 00:18:00,36.5,36.0,29.73,SSW,203,0.0,0.0,97,0.09,,,0.04,weatherlink.com 1.10,2013-04-01 04:18:00,
2013-04-01 00:33:00,36.7,36.0,29.72,SSW,203,0.0,0.0,96,0.12,,,0.07,weatherlink.com 1.10,2013-04-01 04:33:00,
2013-04-01 00:48:00,37.2,37.0,29.71,West,273,1.0,2.0,97,0.12,,,0.09,weatherlink.com 1.10,2013-04-01 04:48:00,
2013-04-01 01:03:00,37.4,37.0,29.70,West,281,1.0,3.0,97,0.13,,,0.13,weatherlink.com 1.10,2013-04-01 05:03:00,
2013-04-01 01:18:00,38.0,37.0,29.69,SW,226,1.0,6.0,97,0.14,,,0.18,weatherlink.com 1.10,2013-04-01 05:18:00,
2013-04-01 01:33:00,38.1,37.0,29.69,ENE,63,1.0,3.0,97,0.14,,,0.21,weatherlink.com 1.10,2013-04-01 05:33:00,
2013-04-01 01:48:00,38.0,37.0,29.67,NE,37,0.0,5.0,97,0.15,,,0.25,weatherlink.com 1.10,2013-04-01 05:48:00,
2013-04-01 02:03:00,38.0,37.0,29.65,North,355,0.0,4.0,97,0.16,,,0.29,weatherlink.com 1.10,2013-04-01 06:03:00,
2013-04-01 02:18:00,38.0,37.0,29.64,WSW,256,0.0,5.0,97,0.11,,,0.29,weatherlink.com 1.10,2013-04-01 06:18:00,
2013-04-01 02:33:00,37.9,37.0,29.63,WNW,289,0.0,2.0,97,0.10,,,0.31,weatherlink.com 1.10,2013-04-01 06:33:00,
2013-04-01 02:49:00,38.0,37.0,29.62,North,357,0.0,2.0,97,0.07,,,0.32,weatherlink.com 1.10,2013-04-01 06:49:00,
2013-04-01 03:04:00,38.0,37.0,29.61,NW,314,0.0,0.0,97,0.04,,,0.33,weatherlink.com 1.10,2013-04-01 07:04:00,
2013-04-01 03:19:00,38.1,37.0,29.61,SW,235,1.0,2.0,97,0.04,,,0.33,weatherlink.com 1.10,2013-04-01 07:19:00,
2013-04-01 03:34:00,38.2,38.0,29.61,West,276,0.0,3.0,97,0.02,,,0.33,weatherlink.com 1.10,2013-04-01 07:34:00,
2013-04-01 03:49:00,38.3,38.0,29.61,WSW,256,1.0,3.0,97,0.02,,,0.34,weatherlink.com 1.10,2013-04-01 07:49:00,
2013-04-01 04:04:00,38.2,38.0,29.59,North,358,0.0,1.0,97,0.02,,,0.35,weatherlink.com 1.10,2013-04-01 08:04:00,
2013-04-01 04:19:00,38.1,37.0,29.59,West,269,0.0,3.0,97,0.02,,,0.35,weatherlink.com 1.10,2013-04-01 08:19:00,
2013-04-01 04:34:00,38.1,37.0,29.59,WSW,246,2.0,2.0,97,0.02,,,0.35,weatherlink.com 1.10,2013-04-01 08:34:00,
2013-04-01 04:49:00,38.0,37.0,29.60,West,274,0.0,2.0,97,0.01,,,0.35,weatherlink.com 1.10,2013-04-01 08:49:00,
2013-04-01 05:04:00,37.9,37.0,29.60,West,271,0.0,2.0,97,0.00,,,0.35,weatherlink.com 1.10,2013-04-01 09:04:00,
2013-04-01 05:19:00,37.7,37.0,29.60,West,259,0.0,1.0,97,0.00,,,0.35,weatherlink.com 1.10,2013-04-01 09:19:00,
2013-04-01 05:34:00,37.5,37.0,29.60,SW,228,2.0,3.0,97,0.00,,,0.35,weatherlink.com 1.10,2013-04-01 09:34:00,
2013-04-01 05:49:00,37.4,37.0,29.61,West,278,1.0,3.0,97,0.00,,,0.35,weatherlink.com 1.10,2013-04-01 09:49:00,
2013-04-01 06:04:00,37.2,37.0,29.61,WSW,255,0.0,3.0,97,0.00,,,0.35,weatherlink.com 1.10,2013-04-01 10:04:00,
2013-04-01 06:19:00,37.2,37.0,29.62,West,275,2.0,5.0,97,0.00,,,0.35,weatherlink.com 1.10,2013-04-01 10:19:00,
2013-04-01 06:34:00,37.3,37.0,29.62,West,271,1.0,5.0,97,0.00,,,0.35,weatherlink.com 1.10,2013-04-01 10:34:00,
2013-04-01 06:49:00,37.2,37.0,29.62,WSW,250,0.0,3.0,97,0.00,,,0.35,weatherlink.com 1.10,2013-04-01 10:49:00,
2013-04-01 07:04:00,37.2,37.0,29.63,SW,222,0.0,2.0,97,0.00,,,0.35,weatherlink.com 1.10,2013-04-01 11:04:00,
2013-04-01 07:19:00,37.0,36.0,29.63,SW,222,0.0,0.0,97,0.00,,,0.35,weatherlink.com 1.10,2013-04-01 11:19:00,
2013-04-01 07:34:00,37.2,37.0,29.62,SSW,201,0.0,0.0,97,0.00,,,0.35,weatherlink.com 1.10,2013-04-01 11:34:00,
2013-04-01 07:49:00,37.5,37.0,29.62,SSE,155,0.0,0.0,97,0.00,,,0.35,weatherlink.com 1.10,2013-04-01 11:49:00,
2013-04-01 08:04:00,37.5,37.0,29.62,West,267,0.0,0.0,97,0.00,,,0.35,weatherlink.com 1.10,2013-04-01 12:04:00,
2013-04-01 08:19:00,37.8,37.0,29.61,West,263,0.0,6.0,96,0.00,,,0.35,weatherlink.com 1.10,2013-04-01 12:19:00,
2013-04-01 08:34:00,38.9,38.0,29.61,East,101,1.0,2.0,96,0.00,,,0.35,weatherlink.com 1.10,2013-04-01 12:34:00,
2013-04-01 08:49:00,39.8,38.0,29.61,West,266,1.0,6.0,93,0.00,,,0.35,weatherlink.com 1.10,2013-04-01 12:49:00,
2013-04-01 09:04:00,40.4,38.0,29.60,North,352,3.0,9.0,92,0.00,,,0.35,weatherlink.com 1.10,2013-04-01 13:04:00,
2013-04-01 09:19:00,43.1,40.0,29.60,WNW,290,1.0,7.0,89,0.00,,,0.35,weatherlink.com 1.10,2013-04-01 13:19:00,
2013-04-01 09:34:00,44.4,40.0,29.60,SW,219,2.0,6.0,85,0.00,,,0.35,weatherlink.com 1.10,2013-04-01 13:34:00,
2013-04-01 09:49:00,44.6,40.0,29.59,WSW,249,2.0,7.0,83,0.00,,,0.35,weatherlink.com 1.10,2013-04-01 13:49:00,
2013-04-01 10:04:00,44.6,40.0,29.59,NW,312,1.0,10.0,83,0.00,,,0.35,weatherlink.com 1.10,2013-04-01 14:04:00,
2013-04-01 10:19:00,45.9,40.0,29.59,SSW,210,0.0,5.0,81,0.00,,,0.35,weatherlink.com 1.10,2013-04-01 14:19:00,
2013-04-01 10:34:00,45.1,40.0,29.60,South,187,4.0,8.0,82,0.00,,,0.35,weatherlink.com 1.10,2013-04-01 14:34:00,
2013-04-01 10:49:00,45.6,41.0,29.60,SW,219,0.0,8.0,83,0.00,,,0.35,weatherlink.com 1.10,2013-04-01 14:49:00,
2013-04-01 11:04:00,46.6,40.0,29.59,WSW,243,4.0,6.0,79,0.00,,,0.35,weatherlink.com 1.10,2013-04-01 15:04:00,
2013-04-01 11:19:00,47.3,41.0,29.59,WNW,285,5.0,8.0,78,0.00,,,0.35,weatherlink.com 1.10,2013-04-01 15:19:00,
2013-04-01 11:35:00,48.4,41.0,29.58,WSW,258,3.0,11.0,76,0.00,,,0.35,weatherlink.com 1.10,2013-04-01 15:35:00,
2013-04-01 11:50:00,50.2,41.0,29.57,West,264,6.0,11.0,72,0.00,,,0.35,weatherlink.com 1.10,2013-04-01 15:50:00,
2013-04-01 12:05:00,51.4,42.0,29.56,South,186,6.0,9.0,70,0.00,,,0.35,weatherlink.com 1.10,2013-04-01 16:05:00,
2013-04-01 12:20:00,52.1,42.0,29.55,West,269,1.0,9.0,68,0.00,,,0.35,weatherlink.com 1.10,2013-04-01 16:20:00,
2013-04-01 12:35:00,52.4,41.0,29.55,SSW,206,2.0,12.0,66,0.00,,,0.35,weatherlink.com 1.10,2013-04-01 16:35:00,
2013-04-01 12:50:00,52.2,40.0,29.55,SSW,195,5.0,13.0,64,0.00,,,0.35,weatherlink.com 1.10,2013-04-01 16:50:00,
2013-04-01 13:05:00,53.4,41.0,29.54,South,190,4.0,12.0,63,0.00,,,0.35,weatherlink.com 1.10,2013-04-01 17:05:00,
2013-04-01 13:20:00,53.4,40.0,29.54,West,259,7.0,13.0,61,0.00,,,0.35,weatherlink.com 1.10,2013-04-01 17:20:00,
2013-04-01 13:35:00,53.0,41.0,29.54,ESE,117,1.0,8.0,63,0.00,,,0.35,weatherlink.com 1.10,2013-04-01 17:35:00,
2013-04-01 13:50:00,55.3,40.0,29.52,WSW,250,2.0,12.0,57,0.00,,,0.35,weatherlink.com 1.10,2013-04-01 17:50:00,
2013-04-01 14:05:00,55.5,39.0,29.51,SW,214,9.0,14.0,54,0.00,,,0.35,weatherlink.com 1.10,2013-04-01 18:05:00,
2013-04-01 14:20:00,54.5,39.0,29.50,SSW,204,5.0,11.0,57,0.00,,,0.35,weatherlink.com 1.10,2013-04-01 18:20:00,
2013-04-01 14:35:00,54.8,40.0,29.50,WSW,245,6.0,11.0,57,0.00,,,0.35,weatherlink.com 1.10,2013-04-01 18:35:00,
2013-04-01 14:50:00,48.9,39.0,29.52,SW,224,17.0,26.0,70,0.01,,,0.36,weatherlink.com 1.10,2013-04-01 18:50:00,
2013-04-01 15:05:00,40.8,38.0,29.55,WNW,291,6.0,24.0,88,0.09,,,0.44,weatherlink.com 1.10,2013-04-01 19:05:00,
2013-04-01 15:20:00,40.2,38.0,29.55,West,262,2.0,11.0,91,0.14,,,0.49,weatherlink.com 1.10,2013-04-01 19:20:00,
2013-04-01 15:35:00,41.6,39.0,29.55,West,264,5.0,11.0,91,0.15,,,0.50,weatherlink.com 1.10,2013-04-01 19:35:00,
2013-04-01 15:50:00,43.2,40.0,29.54,NW,311,6.0,17.0,88,0.13,,,0.50,weatherlink.com 1.10,2013-04-01 19:50:00,
2013-04-01 16:05:00,43.7,39.0,29.54,WNW,289,13.0,21.0,83,0.05,,,0.50,weatherlink.com 1.10,2013-04-01 20:05:00,
2013-04-01 16:20:00,43.8,39.0,29.53,WNW,282,8.0,21.0,83,0.00,,,0.50,weatherlink.com 1.10,2013-04-01 20:20:00,
2013-04-01 16:35:00,43.1,38.0,29.55,West,264,6.0,19.0,81,0.00,,,0.50,weatherlink.com 1.10,2013-04-01 20:35:00,
2013-04-01 16:50:00,41.8,34.0,29.56,NW,305,3.0,19.0,74,0.00,,,0.50,weatherlink.com 1.10,2013-04-01 20:50:00,
2013-04-01 17:05:00,41.0,33.0,29.57,WNW,290,16.0,20.0,72,0.00,,,0.50,weatherlink.com 1.10,2013-04-01 21:05:00,
2013-04-01 17:20:00,40.9,32.0,29.58,West,260,6.0,21.0,70,0.00,,,0.50,weatherlink.com 1.10,2013-04-01 21:20:00,
2013-04-01 17:35:00,40.5,30.0,29.59,WNW,290,5.0,16.0,67,0.00,,,0.50,weatherlink.com 1.10,2013-04-01 21:35:00,
2013-04-01 17:50:00,39.3,28.0,29.60,West,271,21.0,26.0,63,0.00,,,0.50,weatherlink.com 1.10,2013-04-01 21:50:00,
2013-04-01 18:05:00,38.6,25.0,29.61,NNW,347,11.0,22.0,58,0.00,,,0.50,weatherlink.com 1.10,2013-04-01 22:05:00,
2013-04-01 18:20:00,38.0,25.0,29.63,WNW,288,6.0,18.0,60,0.00,,,0.50,weatherlink.com 1.10,2013-04-01 22:20:00,
2013-04-01 18:35:00,37.9,25.0,29.62,SW,236,11.0,21.0,59,0.00,,,0.50,weatherlink.com 1.10,2013-04-01 22:35:00,
2013-04-01 18:50:00,37.9,22.0,29.63,SW,224,4.0,26.0,52,0.00,,,0.50,weatherlink.com 1.10,2013-04-01 22:50:00,
2013-04-01 19:05:00,37.2,20.0,29.64,WSW,256,10.0,20.0,51,0.00,,,0.50,weatherlink.com 1.10,2013-04-01 23:05:00,
2013-04-01 19:20:00,36.6,20.0,29.64,WNW,290,6.0,18.0,51,0.00,,,0.50,weatherlink.com 1.10,2013-04-01 23:20:00,
2013-04-01 19:35:00,35.9,20.0,29.65,WSW,256,3.0,13.0,53,0.00,,,0.50,weatherlink.com 1.10,2013-04-01 23:35:00,
2013-04-01 19:51:00,35.6,16.0,29.66,WSW,253,16.0,24.0,45,0.00,,,0.50,weatherlink.com 1.10,2013-04-01 23:51:00,
2013-04-01 20:06:00,35.1,15.0,29.67,NNW,330,5.0,28.0,44,0.00,,,0.50,weatherlink.com 1.10,2013-04-02 00:06:00,
2013-04-01 20:21:00,34.7,14.0,29.68,WNW,289,5.0,21.0,43,0.00,,,0.50,weatherlink.com 1.10,2013-04-02 00:21:00,
2013-04-01 20:36:00,34.2,13.0,29.68,West,278,7.0,18.0,42,0.00,,,0.50,weatherlink.com 1.10,2013-04-02 00:36:00,
2013-04-01 20:51:00,33.7,12.0,29.69,West,264,6.0,22.0,40,0.00,,,0.50,weatherlink.com 1.10,2013-04-02 00:51:00,
2013-04-01 21:06:00,33.3,11.0,29.70,West,281,13.0,22.0,40,0.00,,,0.50,weatherlink.com 1.10,2013-04-02 01:06:00,
2013-04-01 21:21:00,33.0,12.0,29.72,West,266,14.0,17.0,42,0.00,,,0.50,weatherlink.com 1.10,2013-04-02 01:21:00,
2013-04-01 21:36:00,32.6,12.0,29.72,WNW,296,7.0,21.0,43,0.00,,,0.50,weatherlink.com 1.10,2013-04-02 01:36:00,
2013-04-01 21:51:00,32.2,12.0,29.73,WNW,295,13.0,17.0,44,0.00,,,0.50,weatherlink.com 1.10,2013-04-02 01:51:00,
2013-04-01 22:06:00,31.7,13.0,29.74,WNW,302,11.0,15.0,46,0.00,,,0.50,weatherlink.com 1.10,2013-04-02 02:06:00,
2013-04-01 22:36:00,31.0,14.0,29.74,West,269,7.0,19.0,49,0.00,,,0.50,weatherlink.com 1.10,2013-04-02 02:36:00,
2013-04-01 22:51:00,30.6,13.0,29.75,West,269,3.0,17.0,49,0.00,,,0.50,weatherlink.com 1.10,2013-04-02 02:51:00,
2013-04-01 23:06:00,30.5,14.0,29.75,West,277,5.0,17.0,50,0.00,,,0.50,weatherlink.com 1.10,2013-04-02 03:06:00,
2013-04-01 23:21:00,30.1,14.0,29.75,WNW,287,16.0,19.0,51,0.00,,,0.50,weatherlink.com 1.10,2013-04-02 03:21:00,
2013-04-01 23:36:00,29.7,14.0,29.76,West,262,3.0,12.0,53,0.00,,,0.50,weatherlink.com 1.10,2013-04-02 03:36:00,